SCP
1 1 1 1 1 1 1 1 1 1 1 1 1 1 1 1 1 1 1 1 1 1 1 2 2 2 1 1 1 1 1 1 1 1 1 1 1 1 1 1 1 1 1
1 1 1 1 1 1 1 1 1 1 1 1 1 1 1 1 1 1 1 1 1 1 1 2 2 2 1 1 1 1 2 2 1 1 1 1 1 1 1 1 1 1 1
0 1 1 1 1 1 1 0 0 1 1 1 1 1 1 1 1 1 1 1 1 1 1 1 1 2 1 1 1 1 1 2 1 1 1 1 1 1 1 1 1 1 1
1 1 1 1 1 1 0 0 0 1 1 1 1 1 1 1 1 1 1 1 1 1 1 1 1 1 2 1 1 1 1 1 1 1 1 1 1 1 1 1 1 1 1
1 1 1 1 1 1 1 0 1 1 1 1 1 1 1 1 1 1 1 1 1 1 1 1 1 1 2 1 1 1 1 1 1 1 1 1 2 2 1 1 1 1 2
1 1 1 1 1 1 1 1 1 1 1 1 1 1 1 1 1 1 1 1 1 1 1 1 1 2 2 2 2 1 1 1 1 1 1 1 2 2 1 1 1 2 2
1 1 1 1 1 1 1 1 1 1 1 1 1 1 1 2 2 1 1 1 1 1 2 2 2 2 3 3 2 2 1 1 1 1 1 1 1 1 1 1 1 2 2
0 0 1 1 1 1 1 1 1 1 1 1 2 2 2 2 2 2 2 1 1 2 2 2 2 3 3 3 3 2 2 1 1 1 1 1 1 1 1 1 1 1 1
0 0 1 1 1 1 1 1 1 1 1 2 2 3 3 3 3 2 2 2 2 2 2 2 3 3 3 3 3 2 2 1 1 1 1 1 1 1 1 1 1 1 1
0 0 1 1 1 1 1 1 1 1 1 2 2 3 3 3 2 2 2 2 2 2 2 2 2 2 2 2 2 2 2 2 2 1 1 1 1 1 1 1 1 1 1
0 0 1 1 1 1 1 1 1 1 1 1 2 2 2 2 2 2 2 2 1 1 1 1 2 2 2 1 2 2 2 2 2 1 1 1 1 1 1 1 1 1 1
0 0 1 1 1 1 1 1 1 1 1 1 1 1 1 1 1 1 1 1 1 1 1 1 2 2 1 1 1 1 1 1 1 1 1 1 2 2 1 1 1 1 1
0 1 1 1 1 1 1 1 1 1 1 1 1 1 1 1 1 1 1 1 1 1 1 1 1 1 1 1 1 1 1 1 0 0 1 2 2 2 2 1 1 1 1
0 1 1 1 1 2 1 1 1 1 1 1 1 1 1 1 1 1 1 1 1 1 1 1 1 1 1 1 0 0 0 1 1 1 1 2 3 2 2 1 1 1 1
1 1 1 1 2 2 2 1 1 1 1 1 2 2 1 1 1 1 1 1 1 1 1 1 1 1 1 1 0 0 0 0 1 1 1 2 2 2 2 1 1 1 1
1 1 1 1 2 2 2 1 1 1 1 1 2 2 1 1 2 2 2 1 1 1 1 1 1 1 1 1 1 1 1 1 1 1 1 1 2 2 1 1 1 1 1
1 1 1 1 2 2 2 2 1 1 1 1 1 2 1 1 2 2 1 1 1 1 1 1 1 1 1 1 1 1 1 1 1 1 1 1 2 1 1 1 1 1 1
1 1 1 1 2 3 3 2 1 1 2 2 2 2 1 1 1 2 1 1 1 1 1 2 2 1 1 1 1 1 1 2 2 1 1 1 2 2 2 1 1 1 1
1 2 2 2 2 3 3 2 2 2 2 2 2 2 2 1 2 2 2 2 1 1 1 2 2 2 1 1 1 1 2 2 2 2 2 2 2 3 3 2 2 2 1
2 2 2 2 3 3 3 2 2 2 2 2 2 2 2 2 2 2 2 2 2 2 2 2 2 2 2 1 1 1 2 2 3 3 3 3 3 4 4 4 3 3 2
3 3 3 3 3 3 2 2 2 2 2 2 3 3 2 2 2 2 2 2 2 3 3 3 3 2 2 2 2 1 2 2 3 3 3 3 4 4 5 6 5 4 4
3 3 3 3 3 3 3 2 2 2 2 2 3 4 3 3 3 3 3 3 3 3 4 5 4 4 3 2 2 2 2 3 3 4 4 4 4 4 6 7 7 6 5
2 2 3 3 3 3 2 2 2 2 2 2 4 5 5 5 5 5 5 4 4 4 4 5 6 5 4 3 3 3 4 4 4 4 4 3 4 4 5 8 9 8 6
2 2 3 4 4 3 3 2 2 2 2 2 4 5 6 6 6 6 7 7 6 5 5 5 6 6 5 4 4 4 5 6 6 5 3 3 3 3 4 7 9 8 6
4 4 6 7 7 6 5 4 3 3 2 3 3 5 7 7 6 6 7 8 8 7 6 5 6 6 5 4 4 5 6 6 6 5 3 3 2 2 3 5 6 6 5
5 6 9 10 9 8 7 5 5 4 3 3 3 5 6 7 6 6 7 8 8 8 6 6 6 6 5 4 5 5 6 7 6 5 3 3 2 2 2 3 4 4 4
Wind_Speed
7 8 9 9 9 9 9 9 9 9 9 9 9 9 9 9 9 10 10 11 11 11 11 12 11 11 11 11 11 11 11 11 11 11 10 10 9 9 8 8 7 7 11
9 9 10 9 9 9 9 9 9 9 9 8 8 8 8 8 9 9 10 10 11 11 10 11 11 11 11 10 11 11 12 11 11 11 11 10 9 8 7 7 6 6 10
11 10 10 10 9 9 9 9 9 9 9 8 8 8 8 8 8 9 10 10 10 10 10 10 10 10 10 10 10 10 11 11 11 11 10 7 7 8 8 7 8 9 9
11 10 10 10 9 9 9 9 9 9 8 7 7 7 7 7 8 8 9 9 9 9 9 10 10 10 10 10 10 10 11 10 11 10 6 5 6 9 9 8 8 9 9
12 11 11 10 9 9 9 9 8 8 8 7 6 6 6 7 8 8 9 8 8 8 9 9 9 9 9 9 10 10 10 10 10 8 4 4 5 9 9 9 8 8 8
12 11 11 10 9 8 8 8 8 8 7 6 5 5 6 7 7 8 8 8 8 7 8 8 8 8 9 9 9 10 9 8 7 4 4 5 5 9 10 9 9 8 8
11 11 10 10 9 8 7 7 7 7 6 6 5 5 6 7 7 8 7 8 8 7 7 7 8 8 8 9 9 9 8 7 5 4 4 5 5 9 9 9 9 8 8
9 10 9 10 9 8 7 7 6 6 5 5 6 6 6 7 7 8 7 8 7 7 6 6 7 8 8 9 9 8 7 6 5 5 6 6 8 10 10 9 8 8 7
8 8 8 7 8 8 7 7 6 5 4 4 5 5 6 7 8 8 8 7 7 6 6 6 7 9 10 10 9 9 8 6 3 3 5 5 9 10 9 9 8 7 7
7 7 6 6 6 7 7 7 7 5 4 4 4 5 5 7 8 9 8 7 6 6 6 6 7 9 11 10 9 9 7 5 3 4 4 6 10 10 9 9 7 6 6
5 5 5 5 4 4 6 7 6 6 4 4 4 4 4 3 5 6 8 8 7 7 7 7 9 9 10 10 10 9 6 3 5 4 4 8 10 10 9 8 7 6 6
4 5 5 5 3 3 4 4 3 3 3 3 2 2 2 2 3 6 8 8 7 7 7 7 8 8 6 5 7 8 3 4 4 4 5 10 9 9 9 7 7 6 6
3 4 5 5 4 4 3 3 2 2 2 3 3 2 2 2 3 3 3 4 5 6 4 6 6 3 3 3 3 3 3 3 3 4 6 10 8 9 8 7 6 6 6
4 5 6 6 4 4 3 2 2 2 2 2 3 2 2 2 3 3 2 3 3 2 3 3 3 4 4 4 4 4 4 3 3 4 6 10 8 8 7 6 6 6 6
5 5 6 5 5 4 3 2 3 2 3 3 2 2 3 2 3 3 2 2 2 3 3 3 4 4 4 4 4 4 4 4 4 4 5 9 9 9 8 7 6 6 5
5 5 6 6 5 3 2 1 1 2 3 3 2 3 3 3 2 3 2 2 3 3 3 3 4 4 3 3 4 4 3 3 3 4 5 6 9 9 8 7 6 6 5
5 5 6 5 5 3 2 1 2 2 3 3 2 3 3 3 3 3 3 2 2 3 3 3 4 3 3 3 4 4 3 3 3 3 4 4 5 7 8 7 6 6 6
5 5 4 5 6 4 3 2 2 2 2 2 3 3 2 3 3 3 2 2 2 3 3 3 2 2 2 3 3 2 3 3 4 3 3 3 4 4 6 8 7 6 6
6 5 4 4 4 4 3 2 2 2 2 2 3 3 2 3 3 2 2 2 2 2 2 3 3 2 2 2 3 3 2 3 3 3 3 3 3 4 4 6 8 7 7
7 5 4 4 3 3 3 2 1 2 2 2 3 2 2 2 3 2 3 2 2 2 2 2 3 2 2 2 2 2 2 2 3 3 4 3 3 4 4 5 5 5 8
7 6 4 4 3 2 1 1 2 2 1 2 3 3 2 2 2 1 2 2 2 2 2 3 2 2 2 2 2 2 1 2 3 3 3 3 3 4 3 4 4 4 4
7 6 6 4 4 3 2 1 1 2 1 2 2 2 2 2 1 2 1 2 2 2 2 2 2 1 1 2 2 2 1 1 1 3 3 3 3 3 3 4 3 3 3
8 7 5 4 4 3 3 2 2 2 1 1 2 2 2 2 2 1 2 1 2 2 2 3 3 3 2 1 1 1 1 1 1 1 2 2 3 2 2 3 4 4 4
9 8 6 5 4 3 3 2 2 2 2 2 1 2 2 2 2 2 2 2 1 1 2 3 3 2 2 2 1 1 1 1 2 1 1 1 2 2 2 2 3 3 3
10 9 8 6 5 4 3 2 1 1 1 1 2 2 2 1 2 2 2 2 1 1 1 1 1 1 2 2 1 1 1 1 2 2 2 2 2 2 2 2 2 3 3
9 9 9 7 6 4 4 3 2 1 1 1 1 1 2 2 2 2 2 1 1 1 1 1 2 2 2 2 2 1 1 1 1 1 1 2 1 1 2 2 2 2 3
Wind_Direction
97 95 86 79 76 74 73 73 77 82 85 89 93 98 102 108 112 116 119 120 125 128 133 137 140 139 139 140 139 137 136 135 133 132 137 135 134 133 132 134 137 122 119
102 99 91 82 79 76 76 75 77 85 88 93 95 100 105 110 114 117 123 124 128 132 136 139 141 139 139 139 138 140 140 141 140 138 138 140 139 136 134 131 125 122 128
105 106 97 85 80 79 78 79 78 82 86 92 98 104 110 113 115 119 127 129 132 136 138 141 142 141 142 142 143 147 148 150 151 151 146 138 142 142 135 132 127 129 129
108 103 98 93 85 83 82 81 81 80 82 87 95 104 113 118 121 123 128 131 133 137 140 145 146 148 146 147 147 150 156 159 161 165 158 138 134 140 136 133 134 134 135
105 102 103 101 94 87 84 84 82 78 80 83 89 101 111 119 121 124 128 130 132 136 143 149 151 153 151 152 153 155 159 164 171 175 143 126 118 138 143 140 137 136 138
103 102 106 108 100 92 87 87 84 80 78 78 83 101 115 126 126 128 128 131 133 134 141 151 154 155 156 157 159 163 166 167 172 158 142 129 127 145 147 146 144 141 139
103 109 113 114 110 104 95 93 90 83 79 75 78 97 120 127 124 123 125 130 131 133 137 145 154 158 157 160 163 169 171 176 171 144 131 122 134 146 150 146 144 147 148
99 107 117 126 123 114 110 107 100 92 86 81 81 97 114 126 125 121 123 128 132 133 138 148 159 163 165 167 168 172 176 187 152 138 127 129 144 149 151 146 148 153 157
91 103 119 132 134 128 128 122 116 111 105 101 103 102 109 129 130 129 129 132 137 140 145 149 160 167 168 169 171 174 180 189 157 138 132 132 145 145 147 149 152 156 164
93 99 111 117 129 142 138 136 133 129 125 125 125 120 121 137 140 139 136 138 143 146 149 153 156 157 164 167 172 175 180 186 151 128 120 132 138 139 144 150 154 160 169
88 92 97 96 115 123 125 130 145 145 144 137 144 147 147 143 140 144 134 136 142 150 152 150 147 149 158 166 175 175 174 154 123 115 114 130 136 139 143 149 152 160 170
89 92 85 80 77 98 107 122 145 136 143 136 112 139 152 116 114 126 131 141 144 148 148 147 148 153 160 162 172 174 162 135 123 118 124 133 137 141 143 149 155 167 173
100 95 92 80 58 57 75 104 110 117 117 116 108 108 102 102 105 114 126 140 149 154 152 146 151 151 152 137 136 140 134 126 121 122 134 137 140 142 144 150 158 171 178
96 83 83 80 66 51 50 73 111 100 102 100 105 94 98 90 97 99 112 130 136 133 125 127 124 119 117 112 119 123 128 124 132 127 138 141 143 147 150 157 163 171 182
97 89 84 82 71 59 43 21 82 89 95 95 91 81 90 95 94 96 104 110 119 116 128 124 116 117 116 115 116 119 122 120 126 130 136 143 144 148 155 163 170 178 185
103 97 95 90 81 67 64 51 59 87 93 90 84 84 95 95 99 109 105 100 106 110 108 125 129 127 123 121 119 114 113 119 117 125 134 142 146 152 157 163 168 174 178
107 100 109 107 95 80 59 42 79 88 96 102 100 98 102 106 111 114 115 116 115 123 125 121 124 127 132 133 128 130 129 123 124 129 136 145 155 159 163 168 170 177 180
111 102 95 101 105 103 83 44 45 67 92 103 104 102 105 104 117 124 129 127 127 124 124 123 133 133 129 127 130 141 135 138 146 149 146 147 157 162 170 175 171 177 182
118 114 105 88 100 108 109 98 89 72 62 74 85 90 94 98 104 120 122 129 151 134 128 137 126 127 125 128 134 142 147 148 154 160 158 158 159 151 158 172 178 182 190
126 125 121 109 95 104 115 122 104 89 85 86 87 78 87 100 105 110 122 125 126 109 103 111 118 134 140 143 133 116 144 161 161 170 176 172 167 166 168 167 173 189 196
134 132 126 119 117 104 82 132 127 110 106 94 104 97 100 101 113 105 101 113 115 118 133 136 132 149 157 148 133 127 174 179 171 177 187 179 169 170 168 168 175 181 185
145 144 142 142 137 137 122 108 115 113 114 113 101 115 121 120 136 140 121 133 125 137 152 153 151 155 173 163 160 163 168 152 185 185 176 185 178 164 173 176 173 175 174
153 152 150 143 139 145 146 143 121 118 95 93 111 123 126 148 148 124 133 139 152 164 158 171 179 182 194 207 204 212 176 146 144 160 181 166 161 164 178 173 179 173 177
158 154 147 143 139 140 149 150 156 153 158 150 147 136 145 163 154 156 153 153 181 180 166 198 165 204 204 218 214 211 209 153 161 153 203 178 178 190 198 192 175 160 165
161 157 154 144 144 147 150 145 165 144 159 151 147 153 156 165 176 171 168 168 181 209 193 206 169 237 248 244 241 235 203 188 194 167 186 189 201 206 196 192 183 169 167
159 157 153 148 154 160 164 156 163 167 191 176 173 180 178 177 184 184 183 174 187 226 226 220 224 232 253 273 278 267 227 216 197 180 195 192 203 215 201 191 180 172 170